Location: Unspecified
(43.4354°N, 0.0000°E)
Time: 09:16:08
(UTC+00:00)

Transit 2A - Pass Details

Date: 16 June 2019
Orbit: 594 x 964 km, 66.7° (Epoch: 19 July)

Event Time Altitude Azimuth Distance (km) Brightness Sun altitude
Rises 09:07:33 0° 334° (NNW) 3,520 9.2 49.3°
Reaches altitude 10° 09:10:37 10° 347° (NNW) 2,518 8.6 49.8°
Maximum altitude 09:15:21 25° 41° (NE) 1,597 8.2 50.6°
Drops below altitude 10° 09:19:42 10° 97° (E) 2,302 9.3 51.4°
Sets 09:22:22 0° 110° (ESE) 3,157 9.8 51.8°
